(71398) = 2000 AV168 = 2001 CN43

Discovered at Socorro on 2000-01-07 by LINEAR.

Orbit

Orbit type: Main Belt

Note: WebGL enabled browser required.

epoch2023-09-13.0
epoch JD2460200.5
perihelion date2021-04-28.67449
perihelion JD2459333.17449
argument of perihelion (°)331.68987
ascending node (°)104.52305
inclination (°)15.83833
eccentricity0.0787247
perihelion distance (AU)2.4177862
Tisserand w.r.t. Jupiter3.3
ΔV w.r.t. Earth (km/sec)10.9
semimajor axis (AU)2.6243906
mean anomaly (°)201.06813
mean daily motion (°/day)0.23182550
aphelion distance (AU)2.831
period (years)4.25
P-vector [x]0.22088551
P-vector [y]0.93839050
P-vector [z]0.26576844
Q-vector [x]-0.93883240
Q-vector [y]0.13076126
Q-vector [z]0.31858314
absolute magnitude14.82
phase slope0.15
uncertainty0
referenceMPEC 2024-A55
observations used1458
oppositions19
arc length (days)10983
first opposition used1993
last opposition used2023
residual rms (arc-secs)0.70
perturbers coarse indicatorM-v
perturbers precise indicator003Ek
first observation date used1993-06-16.0
last observation date used2023-07-11.0
computer nameMPCLINUX
JD of orbit computation2456877.918681
perihelion JD uncertainty (days)1.5063E-04
argument of perihelion uncertainty (°)3.7659E-05
ascending node uncertainty (°)1.8820E-05
inclination uncertainty (°)4.9583E-06
eccentricity uncertainty 5.9352E-08
perihelion distance uncertainty (AU)1.5395E-07
Minimum Orbit Intersection Distances (in AU)
for orbit epoch: 2460200.5, reference: E2024-A55
Mercury2.11621
Venus1.70484
Earth1.44163
Mars0.83196
Jupiter2.36622
Saturn6.62735
Uranus15.9064
Neptune27.4041

Observations

1494 total observations over interval: 1993 06 16.26980 – 2023 07 11.871269
These data are available for download (format description).

Date (UT) J2000 RA J2000 Dec Magn Location Ref
1993 06 16.26980 15 24 33.75 -02 12 41.0 19.3 V 691 – Steward Observatory, Kitt Peak-Spacewatch MPS 77878
1993 06 16.30178 15 24 32.56 -02 12 50.7 19.5 V 691 – Steward Observatory, Kitt Peak-Spacewatch MPS 77878
1993 06 16.33424 15 24 31.35 -02 13 00.4 19.5 V 691 – Steward Observatory, Kitt Peak-Spacewatch MPS 77878
1999 10 09.32984 04 42 43.28 +03 35 23.2 19.1   704 – Lincoln Laboratory ETS, New Mexico MPS 15670
1999 10 09.36085 04 42 43.29 +03 35 18.1 19.4   704 – Lincoln Laboratory ETS, New Mexico MPS 15670
1999 10 09.37664 04 42 43.44 +03 35 14.7 20.0   704 – Lincoln Laboratory ETS, New Mexico MPS 15670
1999 10 09.39210 04 42 43.39 +03 35 11.7 19.3   704 – Lincoln Laboratory ETS, New Mexico MPS 15670
1999 11 05.34461 04 33 19.03 +02 39 39.1 18.8 R 699 – Lowell Observatory-LONEOS MPS 15670
1999 11 05.35991 04 33 18.36 +02 39 37.5   699 – Lowell Observatory-LONEOS MPS 15670
1999 11 05.37521 04 33 17.63 +02 39 36.8   699 – Lowell Observatory-LONEOS MPS 15670
1999 11 06.32334 04 32 35.45 +02 38 55.1 18.2   704 – Lincoln Laboratory ETS, New Mexico MPS 15670
1999 11 06.35884 04 32 33.79 +02 38 53.3 18.2   704 – Lincoln Laboratory ETS, New Mexico MPS 15670
1999 11 06.37490 04 32 33.04 +02 38 53.0 18.3   704 – Lincoln Laboratory ETS, New Mexico MPS 15670
1999 11 06.39096 04 32 32.32 +02 38 52.2 18.7   704 – Lincoln Laboratory ETS, New Mexico MPS 15670
1999 11 06.40702 04 32 31.53 +02 38 50.8 18.2   704 – Lincoln Laboratory ETS, New Mexico MPS 15670
1999 11 13.38690 04 26 43.70 +02 37 57.2 18.4 R 703 – Catalina Sky Survey MPS 15670
1999 11 13.39912 04 26 43.10 +02 37 56.7 18.0 R 703 – Catalina Sky Survey MPS 15670
1999 11 13.41137 04 26 42.32 +02 37 56.8 18.3 R 703 – Catalina Sky Survey MPS 15670
1999 11 13.42354 04 26 41.72 +02 37 56.7 18.1 R 703 – Catalina Sky Survey MPS 15670
1999 12 02.31324 04 07 59.68 +03 19 59.6 18.0 R 699 – Lowell Observatory-LONEOS MPS 15670
1999 12 02.34380 04 07 57.70 +03 20 07.3   699 – Lowell Observatory-LONEOS MPS 15670
1999 12 02.37438 04 07 55.87 +03 20 14.6   699 – Lowell Observatory-LONEOS MPS 15670
1999 12 03.30083 04 07 00.13 +03 24 06.4 18.3   704 – Lincoln Laboratory ETS, New Mexico MPS 15670
1999 12 03.31535 04 06 59.23 +03 24 11.5 18.6   704 – Lincoln Laboratory ETS, New Mexico MPS 15670
1999 12 03.32983 04 06 58.36 +03 24 14.0 18.4   704 – Lincoln Laboratory ETS, New Mexico MPS 15670
1999 12 03.34425 04 06 57.40 +03 24 17.9 18.5   704 – Lincoln Laboratory ETS, New Mexico MPS 15670
2000 01 07.15463 03 43 45.02 +07 32 30.8 18.5   704 – Lincoln Laboratory ETS, New Mexico MPS 9415
2000 01 07.16985 03 43 44.76 +07 32 39.5 18.8   704 – Lincoln Laboratory ETS, New Mexico MPS 9415
2000 01 07.18497 03 43 44.54 +07 32 47.7 18.3   704 – Lincoln Laboratory ETS, New Mexico MPS 9415
2000 01 07.20011 03 43 44.34 +07 32 55.8 18.6   704 – Lincoln Laboratory ETS, New Mexico MPS 9415
2000 01 07.21520 03 43 44.13 +07 33 04.0 18.3   704 – Lincoln Laboratory ETS, New Mexico MPS 9415
2000 01 11.14862 03 43 11.48 +08 09 50.7 18.7   704 – Lincoln Laboratory ETS, New Mexico MPS 9415
2000 01 11.16369 03 43 11.38 +08 09 58.0 18.7   704 – Lincoln Laboratory ETS, New Mexico MPS 9415
2000 01 11.17901 03 43 11.31 +08 10 06.5 19.2   704 – Lincoln Laboratory ETS, New Mexico MPS 9415
2000 01 11.19409 03 43 11.19 +08 10 15.9 18.9   704 – Lincoln Laboratory ETS, New Mexico MPS 9415
2000 01 11.20912 03 43 11.18 +08 10 23.7 19.1   704 – Lincoln Laboratory ETS, New Mexico MPS 9415
2001 02 02.39247 13 12 05.10 +13 28 49.1 18.4   704 – Lincoln Laboratory ETS, New Mexico MPS 26973
2001 02 02.40723 13 12 05.29 +13 28 55.7 19.0   704 – Lincoln Laboratory ETS, New Mexico MPS 26973
2001 02 02.42202 13 12 05.52 +13 29 02.5 19.2   704 – Lincoln Laboratory ETS, New Mexico MPS 26973
2001 02 02.43692 13 12 05.81 +13 29 08.1 19.5   704 – Lincoln Laboratory ETS, New Mexico MPS 26973
2001 02 02.45172 13 12 05.96 +13 29 15.5 19.5   704 – Lincoln Laboratory ETS, New Mexico MPS 26973
2001 02 15.37881 13 13 32.91 +15 15 06.7 18.5   704 – Lincoln Laboratory ETS, New Mexico MPS 26973
2001 02 15.39390 13 13 32.89 +15 15 14.2 18.6   704 – Lincoln Laboratory ETS, New Mexico MPS 26973
2001 02 15.42369 13 13 32.82 +15 15 28.6 19.6   704 – Lincoln Laboratory ETS, New Mexico MPS 26973
2001 02 20.43372 13 12 52.57 +16 01 37.6 18.8   704 – Lincoln Laboratory ETS, New Mexico MPS 26973
2001 02 20.44767 13 12 52.41 +16 01 44.5 18.8   704 – Lincoln Laboratory ETS, New Mexico MPS 26973
2001 02 20.46172 13 12 52.15 +16 01 52.5 18.9   704 – Lincoln Laboratory ETS, New Mexico MPS 26973
2001 02 20.47577 13 12 51.95 +16 02 01.0 18.3   704 – Lincoln Laboratory ETS, New Mexico MPS 26973
2001 03 15.30577 13 01 40.09 +19 35 23.1 18.6   704 – Lincoln Laboratory ETS, New Mexico MPS 27816
2001 03 15.31848 13 01 39.37 +19 35 30.5 18.4   704 – Lincoln Laboratory ETS, New Mexico MPS 27816
2001 03 15.33118 13 01 38.80 +19 35 37.1 18.5   704 – Lincoln Laboratory ETS, New Mexico MPS 27816
2001 03 15.34385 13 01 38.29 +19 35 43.2 18.6   704 – Lincoln Laboratory ETS, New Mexico MPS 27816
2001 03 15.35653 13 01 37.52 +19 35 48.7 18.3   704 – Lincoln Laboratory ETS, New Mexico MPS 27816
2001 03 20.22905 12 57 51.68 +20 15 07.1 18.0 R 699 – Lowell Observatory-LONEOS MPS 30007
2001 03 20.25874 12 57 50.14 +20 15 21.5   699 – Lowell Observatory-LONEOS MPS 30007
2001 03 20.28844 12 57 48.70 +20 15 34.9   699 – Lowell Observatory-LONEOS MPS 30007
2001 03 20.31819 12 57 47.16 +20 15 48.4   699 – Lowell Observatory-LONEOS MPS 30007
2001 04 13.56520 12 37 12.09 +22 07 15.1 20.3   608 – Haleakala-AMOS MPS 29515
2001 04 13.57603 12 37 11.54 +22 07 15.4 20.2   608 – Haleakala-AMOS MPS 29515
2001 04 13.58659 12 37 11.02 +22 07 15.5 19.8   608 – Haleakala-AMOS MPS 29515
2001 04 14.28750 12 36 38.34 +22 07 59.6 18.8   704 – Lincoln Laboratory ETS, New Mexico MPS 29515
2001 04 14.30083 12 36 37.69 +22 08 01.1 18.4   704 – Lincoln Laboratory ETS, New Mexico MPS 29515
2001 04 14.31408 12 36 37.01 +22 08 01.4 18.4   704 – Lincoln Laboratory ETS, New Mexico MPS 29515
2003 09 01.36288 02 39 43.16 -07 24 01.6 19.0   704 – Lincoln Laboratory ETS, New Mexico MPS 83956
2003 09 01.37497 02 39 43.35 -07 24 04.7 19.9   704 – Lincoln Laboratory ETS, New Mexico MPS 83956
2003 09 01.38747 02 39 43.60 -07 24 10.2 19.0   704 – Lincoln Laboratory ETS, New Mexico MPS 83956
2003 09 01.39968 02 39 43.72 -07 24 14.3 19.7   704 – Lincoln Laboratory ETS, New Mexico MPS 83956
2003 09 01.41185 02 39 43.97 -07 24 18.8 19.6   704 – Lincoln Laboratory ETS, New Mexico MPS 83956
2003 10 18.32147 02 23 21.48 -12 36 33.1 18.4   704 – Lincoln Laboratory ETS, New Mexico MPS 87776
2003 10 18.33309 02 23 20.94 -12 36 36.8 18.6   704 – Lincoln Laboratory ETS, New Mexico MPS 87776
2003 10 18.34462 02 23 20.33 -12 36 39.3 18.5   704 – Lincoln Laboratory ETS, New Mexico MPS 87776
2003 10 18.35629 02 23 19.70 -12 36 42.8 18.7   704 – Lincoln Laboratory ETS, New Mexico MPS 87776
2003 10 18.36823 02 23 19.09 -12 36 45.8 18.8   704 – Lincoln Laboratory ETS, New Mexico MPS 87776
2003 10 25.33114 02 17 02.06 -13 00 45.0 18.2 R 699 – Lowell Observatory-LONEOS MPS 89303
2003 10 25.34446 02 17 01.35 -13 00 45.3   699 – Lowell Observatory-LONEOS MPS 89303
2003 10 25.35773 02 17 00.53 -13 00 47.7   699 – Lowell Observatory-LONEOS MPS 89303
2003 10 25.37098 02 16 59.78 -13 00 50.2   699 – Lowell Observatory-LONEOS MPS 89303
2003 11 23.23087 01 53 26.15 -12 10 19.8 18.6 V 703 – Catalina Sky Survey MPS 92525
2003 11 23.24110 01 53 25.74 -12 10 16.4 18.4 V 703 – Catalina Sky Survey MPS 92525
2003 11 23.25132 01 53 25.35 -12 10 13.2 19.1 V 703 – Catalina Sky Survey MPS 92525
2003 11 23.26155 01 53 25.00 -12 10 09.6 17.2 V 703 – Catalina Sky Survey MPS 92525
2003 12 13.14388 01 47 11.42 -09 29 15.9 19.1   704 – Lincoln Laboratory ETS, New Mexico MPS 94364
2003 12 13.15618 01 47 11.38 -09 29 08.4 18.7   704 – Lincoln Laboratory ETS, New Mexico MPS 94364
2003 12 13.16835 01 47 11.35 -09 29 01.3 19.0   704 – Lincoln Laboratory ETS, New Mexico MPS 94364
2003 12 13.18112 01 47 11.27 -09 28 53.5 18.6   704 – Lincoln Laboratory ETS, New Mexico MPS 94364
2005 01 09.35135 11 17 28.55 +19 53 17.0 18.9 R 703 – Catalina Sky Survey MPS 124460
